When you browse on this site, cookies collect data to enhance your experience and personalize the content and advertising you see.
Visit our Privacy Policy to learn more. By continuing to use the site, you agree to this use of cookies and data.
EN

Hourly Weather Haskovo

Today, 19 September, Saturday

Time Temperature Precipitation Wind Pressure Humidity
00:00 +16°C° 0 mm 2 mps 744 mmHg 90%
01:00 +16°C° 0 mm 2 mps 745 mmHg 89%
02:00 +15°C° 0 mm 1 mps 745 mmHg 85%
03:00 +15°C° 0 mm 1 mps 745 mmHg 75%
04:00 +15°C° 0 mm 2 mps 745 mmHg 64%
05:00 +15°C° 0 mm 2 mps 745 mmHg 54%
06:00 +16°C° 0 mm 2 mps 745 mmHg 47%
07:00 +17°C° 0 mm 3 mps 746 mmHg 39%
08:00 +18°C° 0 mm 4 mps 746 mmHg 32%
09:00 +20°C° 0 mm 4 mps 746 mmHg 30%
10:00 +21°C° 0 mm 4 mps 746 mmHg 28%
11:00 +23°C° 0 mm 5 mps 746 mmHg 26%
12:00 +23°C° 0 mm 5 mps 745 mmHg 26%
13:00 +25°C° 0 mm 5 mps 745 mmHg 25%
14:00 +25°C° 0 mm 5 mps 745 mmHg 28%
15:00 +25°C° 0 mm 5 mps 745 mmHg 29%
16:00 +25°C° 0 mm 4 mps 744 mmHg 29%
17:00 +25°C° 0 mm 3 mps 744 mmHg 30%
18:00 +21°C° 0 mm 3 mps 744 mmHg 35%
19:00 +19°C° 0 mm 3 mps 744 mmHg 40%
20:00 +17°C° 0 mm 3 mps 744 mmHg 44%
21:00 +16°C° 0 mm 2 mps 745 mmHg 53%
22:00 +14°C° 0 mm 2 mps 745 mmHg 62%
23:00 +13°C° 0 mm 1 mps 745 mmHg 70%

Tomorrow, 20 September, Sunday

Time Temperature Precipitation Wind Pressure Humidity
00:00 +12°C° 0 mm 1 mps 745 mmHg 73%
01:00 +12°C° 0 mm 1 mps 744 mmHg 76%
02:00 +12°C° 0 mm 1 mps 744 mmHg 79%
03:00 +11°C° 0 mm 1 mps 744 mmHg 79%
04:00 +11°C° 0 mm 1 mps 744 mmHg 79%
05:00 +10°C° 0 mm 2 mps 744 mmHg 78%
06:00 +12°C° 0 mm 2 mps 744 mmHg 70%
07:00 +14°C° 0 mm 2 mps 744 mmHg 63%
08:00 +15°C° 0 mm 2 mps 744 mmHg 55%
09:00 +18°C° 0 mm 3 mps 744 mmHg 46%
10:00 +20°C° 0 mm 3 mps 744 mmHg 38%
11:00 +22°C° 0 mm 4 mps 744 mmHg 30%
12:00 +23°C° 0 mm 4 mps 744 mmHg 27%
13:00 +25°C° 0 mm 4 mps 743 mmHg 24%
14:00 +26°C° 0 mm 4 mps 743 mmHg 22%
15:00 +26°C° 0 mm 4 mps 743 mmHg 23%
16:00 +26°C° 0 mm 4 mps 743 mmHg 24%
17:00 +26°C° 0 mm 4 mps 743 mmHg 25%
18:00 +22°C° 0 mm 4 mps 743 mmHg 38%
19:00 +19°C° 0 mm 3 mps 743 mmHg 51%
20:00 +17°C° 0 mm 3 mps 743 mmHg 64%
21:00 +16°C° 0 mm 2 mps 743 mmHg 70%
22:00 +15°C° 0 mm 2 mps 743 mmHg 77%
23:00 +14°C° 0 mm 1 mps 744 mmHg 84%

Day after tomorrow, 21 September, Monday

Time Temperature Precipitation Wind Pressure Humidity
00:00 +14°C° 0 mm 1 mps 743 mmHg 84%
01:00 +14°C° 0 mm 1 mps 743 mmHg 85%
02:00 +14°C° 0 mm 1 mps 743 mmHg 86%
03:00 +13°C° 0 mm 1 mps 743 mmHg 86%
04:00 +13°C° 0 mm 2 mps 743 mmHg 87%
05:00 +13°C° 0 mm 2 mps 743 mmHg 88%
06:00 +14°C° 0 mm 2 mps 744 mmHg 80%
07:00 +15°C° 0 mm 2 mps 744 mmHg 72%
08:00 +17°C° 0 mm 2 mps 744 mmHg 64%
09:00 +19°C° 0 mm 3 mps 744 mmHg 59%
10:00 +20°C° 0 mm 3 mps 744 mmHg 53%
11:00 +22°C° 0 mm 3 mps 744 mmHg 48%
12:00 +24°C° 0 mm 3 mps 744 mmHg 44%
13:00 +25°C° 0 mm 3 mps 744 mmHg 41%
14:00 +27°C° 0 mm 3 mps 743 mmHg 37%
15:00 +27°C° 0 mm 3 mps 743 mmHg 37%
16:00 +27°C° 0 mm 3 mps 743 mmHg 37%
17:00 +27°C° 0 mm 3 mps 743 mmHg 36%
18:00 +24°C° 0 mm 3 mps 743 mmHg 44%
19:00 +21°C° 0 mm 2 mps 743 mmHg 52%
20:00 +19°C° 0 mm 2 mps 744 mmHg 60%
21:00 +18°C° 0 mm 2 mps 744 mmHg 65%
22:00 +18°C° 0 mm 1 mps 744 mmHg 70%
23:00 +16°C° 0 mm 1 mps 744 mmHg 75%

22 September, Tuesday

Time Temperature Precipitation Wind Pressure Humidity
00:00 +15°C° 0 mm 1 mps 744 mmHg 78%
01:00 +15°C° 0 mm 1 mps 744 mmHg 80%
02:00 +14°C° 0 mm 1 mps 744 mmHg 83%
03:00 +14°C° 0 mm 1 mps 744 mmHg 84%
04:00 +14°C° 0 mm 1 mps 744 mmHg 85%
05:00 +14°C° 0 mm 1 mps 744 mmHg 86%
06:00 +15°C° 0 mm 1 mps 744 mmHg 80%
07:00 +16°C° 0 mm 1 mps 744 mmHg 73%
08:00 +18°C° 0 mm 1 mps 744 mmHg 67%
09:00 +20°C° 0 mm 1 mps 744 mmHg 58%
10:00 +21°C° 0 mm 2 mps 744 mmHg 49%
11:00 +24°C° 0 mm 2 mps 744 mmHg 41%
12:00 +26°C° 0 mm 2 mps 743 mmHg 36%
13:00 +27°C° 0 mm 2 mps 743 mmHg 31%
14:00 +28°C° 0 mm 3 mps 743 mmHg 27%
15:00 +28°C° 0 mm 2 mps 743 mmHg 26%
16:00 +28°C° 0 mm 2 mps 742 mmHg 26%
17:00 +28°C° 0 mm 2 mps 742 mmHg 26%
18:00 +25°C° 0 mm 2 mps 742 mmHg 33%
19:00 +23°C° 0 mm 2 mps 742 mmHg 41%
20:00 +19°C° 0 mm 2 mps 742 mmHg 48%
21:00 +18°C° 0 mm 2 mps 742 mmHg 57%
22:00 +17°C° 0 mm 2 mps 742 mmHg 65%
23:00 +16°C° 0 mm 2 mps 742 mmHg 73%

23 September, Wednesday

Time Temperature Precipitation Wind Pressure Humidity
00:00 +16°C° 0 mm 1 mps 742 mmHg 76%
01:00 +15°C° 0 mm 1 mps 742 mmHg 80%
02:00 +14°C° 0 mm 0 mps 741 mmHg 83%
03:00 +13°C° 0 mm 0 mps 741 mmHg 84%
04:00 +13°C° 0 mm 0 mps 741 mmHg 84%
05:00 +13°C° 0 mm 0 mps 741 mmHg 84%
06:00 +14°C° 0 mm 0 mps 741 mmHg 78%
07:00 +16°C° 0 mm 0 mps 741 mmHg 72%
08:00 +17°C° 0 mm 0 mps 741 mmHg 66%
09:00 +20°C° 0 mm 0 mps 741 mmHg 57%
10:00 +24°C° 0 mm 1 mps 741 mmHg 47%
11:00 +27°C° 0 mm 1 mps 741 mmHg 38%
12:00 +28°C° 0 mm 1 mps 741 mmHg 34%
13:00 +30°C° 0 mm 2 mps 740 mmHg 29%
14:00 +31°C° 0 mm 2 mps 740 mmHg 25%
15:00 +31°C° 0 mm 3 mps 739 mmHg 26%
16:00 +31°C° 0 mm 3 mps 739 mmHg 26%
17:00 +31°C° 0 mm 3 mps 739 mmHg 27%
18:00 +28°C° 0 mm 3 mps 739 mmHg 33%
19:00 +26°C° 0 mm 3 mps 739 mmHg 40%
20:00 +22°C° 0 mm 3 mps 739 mmHg 47%
21:00 +21°C° 0 mm 2 mps 739 mmHg 52%
22:00 +21°C° 0 mm 2 mps 739 mmHg 56%
23:00 +20°C° 0 mm 2 mps 739 mmHg 61%

24 September, Thursday

Time Temperature Precipitation Wind Pressure Humidity
00:00 +20°C° 0 mm 1 mps 739 mmHg 64%
01:00 +19°C° 0 mm 1 mps 738 mmHg 67%
02:00 +19°C° 0 mm 1 mps 738 mmHg 71%
03:00 +18°C° 0 mm 1 mps 738 mmHg 72%
04:00 +16°C° 0 mm 0 mps 738 mmHg 74%
05:00 +15°C° 0 mm 0 mps 738 mmHg 75%
06:00 +17°C° 0 mm 0 mps 738 mmHg 70%
07:00 +20°C° 0 mm 1 mps 739 mmHg 64%
08:00 +21°C° 0 mm 1 mps 739 mmHg 58%
09:00 +24°C° 0 mm 1 mps 739 mmHg 51%
10:00 +26°C° 0 mm 1 mps 739 mmHg 44%
11:00 +28°C° 0 mm 2 mps 739 mmHg 37%
12:00 +29°C° 0 mm 1 mps 739 mmHg 34%
13:00 +31°C° 0 mm 1 mps 739 mmHg 31%
14:00 +32°C° 0 mm 1 mps 738 mmHg 27%
15:00 +31°C° 0.2 mm 2 mps 738 mmHg 32%
16:00 +29°C° 0.2 mm 3 mps 738 mmHg 37%
17:00 +28°C° 0.2 mm 4 mps 738 mmHg 42%
18:00 +26°C° 0.1 mm 3 mps 738 mmHg 48%
19:00 +24°C° 0.1 mm 2 mps 739 mmHg 54%
20:00 +22°C° 0.1 mm 1 mps 739 mmHg 60%
21:00 +21°C° 0 mm 1 mps 739 mmHg 61%
22:00 +20°C° 0 mm 2 mps 739 mmHg 61%
23:00 +20°C° 0 mm 2 mps 739 mmHg 62%
Show more